DO2DV-13 Weather Reports


Display with metric or nautical units.
time (UTC)temp
F
wind
direction
speed
MPH
gust
MPH
rain 1hr
in
rain 24hr
in
rain mn
in
humidity
%
barometer
mb
20260507112041 54 195 0.0 2.0 0.00 0.08 0.01 76 1015.4
20260507111105 54 222 3.0 6.0 0.00 0.08 0.01 75 1015.5
20260507110113 54 209 2.0 5.0 0.00 0.08 0.01 75 1015.4
20260507105034 54 225 1.0 2.0 0.00 0.08 0.01 75 1015.4
20260507104057 54 254 3.0 5.0 0.00 0.08 0.01 74 1015.4
20260507103122 54 202 4.0 7.0 0.00 0.08 0.01 76 1015.5
20260507102041 54 183 1.0 3.0 0.00 0.08 0.01 78 1015.5
20260507101106 54 185 2.0 5.0 0.00 0.08 0.01 79 1015.3
20260507100025 54 209 2.0 3.0 0.00 0.08 0.01 79 1015.4
20260507095049 53 196 1.0 6.0 0.00 0.08 0.01 82 1015.3
20260507094113 51 202 1.0 2.0 0.00 0.08 0.01 86 1015.2
20260507093039 50 0.0 0.0 0.00 0.08 0.01 86 1015.2
20260507092057 50 215 2.0 5.0 0.00 0.08 0.01 88 1015.2
20260507091120 51 284 2.0 3.0 0.00 0.08 0.01 87 1015.2
20260507085104 51 205 1.0 3.0 0.00 0.08 0.01 87 1014.9
20260507084025 50 217 2.0 5.0 0.00 0.08 0.01 87 1014.9
20260507083049 50 223 2.0 3.0 0.00 0.08 0.01 89 1014.8
20260507082113 50 232 2.0 3.0 0.00 0.08 0.01 91 1014.7
20260507081033 49 219 2.0 3.0 0.00 0.08 0.01 91 1014.6
20260507080117 49 268 3.0 5.0 0.00 0.08 0.01 91 1014.6
20260507075120 50 138 0.0 2.0 0.00 0.08 0.01 92 1014.5
20260507074041 50 246 1.0 2.0 0.00 0.08 0.01 92 1014.4
20260507073105 50 69 1.0 2.0 0.00 0.08 0.01 92 1014.3
20260507072025 50 206 2.0 3.0 0.00 0.08 0.01 92 1014.2
20260507071109 49 252 1.0 2.0 0.00 0.08 0.01 94 1014.0
20260507070113 49 202 1.0 2.0 0.00 0.08 0.01 94 1014.0
20260507065033 49 239 1.0 3.0 0.00 0.08 0.01 94 1014.1
20260507064058 49 225 3.0 5.0 0.00 0.08 0.01 94 1013.8
20260507063121 49 188 1.0 2.0 0.00 0.08 0.01 95 1013.8
20260507062040 49 226 1.0 2.0 0.00 0.08 0.01 95 1013.7
20260507061125 49 170 1.0 2.0 0.00 0.08 0.01 96 1013.5
20260507060025 49 184 0.0 1.0 0.00 0.08 0.01 97 1013.5
20260507055109 48 277 0.0 2.0 0.00 0.08 0.01 97 1013.3
20260507054113 48 21 0.0 1.0 0.01 0.08 0.01 98 1013.2
20260507053033 48 86 0.0 1.0 0.01 0.08 0.01 98 1013.1
20260507052058 48 223 0.0 2.0 0.01 0.08 0.01 99 1013.1
20260507051121 48 223 0.0 2.0 0.01 0.08 0.01 99 1012.9
20260507050040 48 0.0 0.0 0.01 0.08 0.01 98 1012.8
20260507045106 48 166 1.0 2.0 0.01 0.08 0.01 98 1012.6
20260507044025 48 155 1.0 2.0 0.00 0.07 0.00 98 1012.5
20260507043050 48 147 0.0 1.0 0.00 0.07 0.00 98 1012.2
20260507042114 48 189 0.0 1.0 0.00 0.07 0.00 97 1012.3
20260507041033 48 161 1.0 2.0 0.00 0.07 0.00 97 1012.2
20260507040057 48 174 1.0 2.0 0.00 0.07 0.00 98 1012.0
20260507035122 48 172 1.0 3.0 0.00 0.07 0.00 98 1012.0
20260507034121 48 222 2.0 5.0 0.00 0.07 0.00 98 1011.9
20260507033105 48 132 0.0 1.0 0.00 0.07 0.00 98 1012.0
20260507032025 48 126 0.0 1.0 0.00 0.07 0.00 98 1011.9
20260507031049 48 120 1.0 1.0 0.00 0.07 0.00 98 1011.8
20260507030113 48 210 0.0 2.0 0.00 0.07 0.00 97 1011.7
20260507025033 48 0.0 0.0 0.00 0.07 0.00 97 1011.7
20260507024041 48 317 1.0 2.0 0.00 0.07 0.00 96 1011.8
20260507023105 48 219 2.0 2.0 0.00 0.07 0.00 96 1011.7
20260507022025 48 195 2.0 3.0 0.00 0.07 0.00 96 1011.6
20260507021050 48 196 1.0 3.0 0.00 0.07 0.00 96 1011.5
20260507020113 48 158 1.0 2.0 0.00 0.07 0.00 96 1011.4
20260507015033 48 208 2.0 3.0 0.00 0.07 0.00 96 1011.3
20260507014057 48 205 1.0 3.0 0.00 0.07 0.00 96 1011.2
20260507013121 49 109 2.0 5.0 0.00 0.07 0.00 95 1011.2
20260507012101 49 107 1.0 3.0 0.00 0.07 0.00 95 1011.1
20260507011125 49 206 2.0 5.0 0.00 0.07 0.00 95 1010.9
20260507010025 49 130 2.0 3.0 0.00 0.07 0.00 95 1011.0
20260507005050 50 184 2.0 6.0 0.00 0.07 0.00 96 1010.9
20260507004114 50 195 3.0 6.0 0.00 0.07 0.00 95 1010.8
20260507003033 50 210 3.0 6.0 0.00 0.07 0.00 95 1010.7
20260507002057 50 178 2.0 3.0 0.00 0.07 0.00 97 1010.7
20260507001121 50 191 1.0 3.0 0.00 0.07 0.00 97 1010.7
20260507000041 50 244 1.0 3.0 0.00 0.07 0.00 98 1010.6
20260506235146 50 147 0.0 1.0 0.00 0.07 0.00 98 1010.6
20260506234025 51 211 1.0 3.0 0.00 0.07 0.00 97 1010.6
20260506233109 51 206 1.0 3.0 0.00 0.07 0.00 96 1010.5
20260506232113 51 219 3.0 3.0 0.00 0.07 0.00 97 1010.5
20260506231033 51 201 1.0 5.0 0.00 0.07 0.00 98 1010.4
20260506230058 51 202 1.0 3.0 0.00 0.07 0.00 98 1010.3
20260506225121 51 149 1.0 2.0 0.00 0.07 0.00 98 1010.3
20260506224041 51 185 1.0 2.0 0.00 0.07 0.00 98 1010.2
20260506223106 51 222 1.0 3.0 0.00 0.07 0.00 99 1010.1
20260506222025 51 161 1.0 2.0 0.00 0.07 0.00 99 1010.1
20260506221130 51 215 1.0 3.0 0.00 0.07 0.00 99 1010.0
20260506220058 51 205 0.0 1.0 0.00 0.07 0.00 99 1009.8
20260506215122 51 323 0.0 1.0 0.00 0.07 0.07 99 1010.0
20260506214026 52 0.0 0.0 0.00 0.07 0.07 99 1009.7
20260506213048 52 0.0 0.0 0.00 0.07 0.07 99 1009.8
20260506212113 52 0.0 0.0 0.00 0.07 0.07 98 1009.7
20260506211034 52 224 2.0 7.0 0.00 0.07 0.07 98 1009.4
20260506210057 52 205 2.0 3.0 0.00 0.07 0.07 99 1009.3
20260506205121 52 209 0.0 1.0 0.00 0.07 0.07 99 1009.3
20260506204042 53 175 0.0 1.0 0.00 0.07 0.07 99 1009.2
20260506203105 53 165 0.0 2.0 0.00 0.07 0.07 99 1009.1
20260506202025 53 198 1.0 3.0 0.00 0.07 0.07 99 1009.1
20260506201050 53 222 0.0 2.0 0.00 0.07 0.07 99 1008.9
20260506200153 53 0.0 0.0 0.01 0.07 0.07 99 1008.8
20260506195034 53 121 0.0 2.0 0.04 0.07 0.07 99 1008.8
20260506194058 54 222 0.0 1.0 0.07 0.07 0.07 99 1008.7
20260506193121 54 165 1.0 1.0 0.07 0.07 0.07 99 1008.4
20260506192042 54 88 0.0 1.0 0.07 0.07 0.07 99 1008.3
20260506191105 54 0.0 0.0 0.07 0.07 0.07 98 1008.1
20260506190045 54 242 2.0 5.0 0.06 0.07 0.06 96 1008.1
20260506185110 55 273 4.0 9.0 0.03 0.04 0.03 93 1008.0
20260506184114 57 231 3.0 6.0 0.00 0.02 0.00 86 1007.8
20260506183113 57 211 3.0 5.0 0.00 0.03 0.00 82 1007.6
20260506182118 57 163 1.0 2.0 0.00 0.04 0.00 82 1007.4
20260506181141 57 192 2.0 2.0 0.00 0.06 0.00 81 1007.4
20260506180026 58 180 3.0 5.0 0.00 0.06 0.00 81 1007.3
20260506175050 58 221 1.0 6.0 0.00 0.06 0.00 79 1007.3
20260506174114 59 225 2.0 7.0 0.00 0.06 0.00 78 1007.2
20260506173034 59 258 3.0 7.0 0.00 0.07 0.00 76 1007.2
20260506172057 60 216 2.0 5.0 0.00 0.07 0.00 74 1006.9
20260506171105 60 225 4.0 7.0 0.00 0.08 0.00 73 1007.0
20260506170026 60 225 6.0 11.0 0.00 0.08 0.00 72 1007.0
20260506165110 60 206 3.0 6.0 0.00 0.08 0.00 73 1006.9
20260506164154 60 221 3.0 6.0 0.00 0.08 0.00 73 1006.9
20260506163034 61 227 3.0 6.0 0.00 0.08 0.00 71 1006.9
20260506162057 62 230 4.0 7.0 0.00 0.08 0.00 71 1007.0
20260506161122 62 239 4.0 9.0 0.00 0.08 0.00 70 1007.0
20260506155107 63 272 5.0 10.0 0.00 0.08 0.00 67 1007.0
20260506154026 65 253 4.0 8.0 0.00 0.08 0.00 62 1006.8
20260506153110 64 248 4.0 9.0 0.00 0.08 0.00 65 1006.8
20260506152114 64 224 5.0 10.0 0.00 0.08 0.00 65 1006.8
20260506151033 64 219 5.0 9.0 0.00 0.08 0.00 63 1006.8
20260506150058 65 233 5.0 8.0 0.00 0.08 0.00 61 1006.7
20260506145121 64 217 3.0 7.0 0.00 0.08 0.00 63 1006.6
20260506144042 63 245 3.0 7.0 0.00 0.08 0.00 65 1006.5
20260506143126 63 208 3.0 8.0 0.00 0.08 0.00 63 1006.6
20260506142045 64 223 4.0 8.0 0.00 0.08 0.00 61 1006.6
20260506141050 64 251 3.0 7.0 0.00 0.08 0.00 63 1006.5
20260506140114 64 217 4.0 9.0 0.00 0.08 0.00 63 1006.5
20260506135035 62 262 4.0 8.0 0.00 0.08 0.00 65 1006.4
20260506134058 63 190 3.0 5.0 0.00 0.08 0.00 66 1006.6
20260506133123 63 234 3.0 5.0 0.00 0.08 0.00 65 1006.5
20260506132042 63 232 3.0 5.0 0.00 0.08 0.00 65 1006.6
20260506131146 63 205 4.0 9.0 0.00 0.08 0.00 65 1006.6
20260506130026 63 213 4.0 8.0 0.00 0.08 0.00 67 1006.8
20260506125050 61 212 3.0 6.0 0.00 0.09 0.00 69 1006.8
20260506124134 62 257 3.0 6.0 0.00 0.09 0.00 70 1006.7
20260506123055 61 230 4.0 8.0 0.00 0.09 0.00 71 1006.8
20260506122042 60 248 3.0 5.0 0.00 0.09 0.00 74 1006.9
20260506121106 59 255 4.0 7.0 0.00 0.09 0.00 75 1006.8
20260506120026 60 249 2.0 7.0 0.00 0.09 0.00 75 1007.0
20260506115050 60 258 3.0 7.0 0.00 0.09 0.00 75 1006.9
20260506114114 59 241 4.0 6.0 0.00 0.09 0.00 77 1006.9
20260506113054 60 218 3.0 6.0 0.00 0.09 0.00 74 1007.0